Year,Month,Day,Hour,Minute,Value (Times are PST for temperature in C)
2008,06,02,00,00,12.50
2008,06,02,00,01,12.50
2008,06,02,00,02,12.50
2008,06,02,00,03,12.50
2008,06,02,00,04,12.50
2008,06,02,00,05,12.50
2008,06,02,00,06,12.40
2008,06,02,00,07,12.40
2008,06,02,00,08,12.40
2008,06,02,00,09,12.50
2008,06,02,00,10,12.50
2008,06,02,00,11,12.50
2008,06,02,00,12,12.50
2008,06,02,00,13,12.40
2008,06,02,00,14,12.40
2008,06,02,00,15,12.40
2008,06,02,00,16,12.40
2008,06,02,00,17,12.40
2008,06,02,00,18,12.40
2008,06,02,00,19,12.40
2008,06,02,00,20,12.40
2008,06,02,00,21,12.40
2008,06,02,00,22,12.40
2008,06,02,00,23,12.40
2008,06,02,00,24,12.40
2008,06,02,00,25,12.40
2008,06,02,00,26,12.40
2008,06,02,00,27,12.40
2008,06,02,00,28,12.40
2008,06,02,00,29,12.40
2008,06,02,00,30,12.40
2008,06,02,00,31,12.40
2008,06,02,00,32,12.30
2008,06,02,00,33,12.30
2008,06,02,00,34,12.30
2008,06,02,00,35,12.30
2008,06,02,00,36,12.30
2008,06,02,00,37,12.30
2008,06,02,00,38,12.30
2008,06,02,00,39,12.30
2008,06,02,00,40,12.30
2008,06,02,00,41,12.30
2008,06,02,00,42,12.30
2008,06,02,00,43,12.30
2008,06,02,00,44,12.30
2008,06,02,00,45,12.30
2008,06,02,00,46,12.30
2008,06,02,00,47,12.30
2008,06,02,00,48,12.30
2008,06,02,00,49,12.30
2008,06,02,00,50,12.30
2008,06,02,00,51,12.30
2008,06,02,00,52,12.30
2008,06,02,00,53,12.30
2008,06,02,00,54,12.30
2008,06,02,00,55,12.30
2008,06,02,00,56,12.30
2008,06,02,00,57,12.30
2008,06,02,00,58,12.30
2008,06,02,00,59,12.30
2008,06,02,01,00,12.20
2008,06,02,01,01,12.20
2008,06,02,01,02,12.20
2008,06,02,01,03,12.20
2008,06,02,01,04,12.20
2008,06,02,01,05,12.20
2008,06,02,01,06,12.20
2008,06,02,01,07,12.20
2008,06,02,01,08,12.20
2008,06,02,01,09,12.20
2008,06,02,01,10,12.20
2008,06,02,01,11,12.10
2008,06,02,01,12,12.10
2008,06,02,01,13,12.10
2008,06,02,01,14,12.10
2008,06,02,01,15,12.00
2008,06,02,01,16,12.00
2008,06,02,01,17,11.90
2008,06,02,01,18,11.90
2008,06,02,01,19,11.90
2008,06,02,01,20,11.80
2008,06,02,01,21,11.80
2008,06,02,01,22,11.80
2008,06,02,01,23,11.80
2008,06,02,01,24,11.70
2008,06,02,01,25,11.70
2008,06,02,01,26,11.70
2008,06,02,01,27,11.70
2008,06,02,01,28,11.60
2008,06,02,01,29,11.60
2008,06,02,01,30,11.60
2008,06,02,01,31,11.60
2008,06,02,01,32,11.50
2008,06,02,01,33,11.50
2008,06,02,01,34,11.50
2008,06,02,01,35,11.40
2008,06,02,01,36,11.40
2008,06,02,01,37,11.40
2008,06,02,01,38,11.40
2008,06,02,01,39,11.40
2008,06,02,01,40,11.40
2008,06,02,01,41,11.40
2008,06,02,01,42,11.40
2008,06,02,01,43,11.40
2008,06,02,01,44,11.40
2008,06,02,01,45,11.40
2008,06,02,01,46,11.40
2008,06,02,01,47,11.40
2008,06,02,01,48,11.40
2008,06,02,01,49,11.40
2008,06,02,01,50,11.40
2008,06,02,01,51,11.40
2008,06,02,01,52,11.40
2008,06,02,01,53,11.40
2008,06,02,01,54,11.40
2008,06,02,01,55,11.40
2008,06,02,01,56,11.40
2008,06,02,01,57,11.40
2008,06,02,01,58,11.40
2008,06,02,01,59,11.40
2008,06,02,02,00,11.40
2008,06,02,02,01,11.40
2008,06,02,02,02,11.30
2008,06,02,02,03,11.30
2008,06,02,02,04,11.30
2008,06,02,02,05,11.30
2008,06,02,02,06,11.30
2008,06,02,02,07,11.30
2008,06,02,02,08,11.30
2008,06,02,02,09,11.30
2008,06,02,02,10,11.30
2008,06,02,02,11,11.30
2008,06,02,02,12,11.30
2008,06,02,02,13,11.30
2008,06,02,02,14,11.30
2008,06,02,02,15,11.30
2008,06,02,02,16,11.30
2008,06,02,02,17,11.30
2008,06,02,02,18,11.30
2008,06,02,02,19,11.20
2008,06,02,02,20,11.20
2008,06,02,02,21,11.20
2008,06,02,02,22,11.20
2008,06,02,02,23,11.20
2008,06,02,02,24,11.20
2008,06,02,02,25,11.20
2008,06,02,02,26,11.20
2008,06,02,02,27,11.20
2008,06,02,02,28,11.20
2008,06,02,02,29,11.20
2008,06,02,02,30,11.20
2008,06,02,02,31,11.20
2008,06,02,02,32,11.10
2008,06,02,02,33,11.10
2008,06,02,02,34,11.10
2008,06,02,02,35,11.10
2008,06,02,02,36,11.10
2008,06,02,02,37,11.10
2008,06,02,02,38,11.20
2008,06,02,02,39,11.20
2008,06,02,02,40,11.20
2008,06,02,02,41,11.20
2008,06,02,02,42,11.20
2008,06,02,02,43,11.20
2008,06,02,02,44,11.20
2008,06,02,02,45,11.20
2008,06,02,02,46,11.20
2008,06,02,02,47,11.20
2008,06,02,02,48,11.20
2008,06,02,02,49,11.20
2008,06,02,02,50,11.20
2008,06,02,02,51,11.20
2008,06,02,02,52,11.20
2008,06,02,02,53,11.20
2008,06,02,02,54,11.10
2008,06,02,02,55,11.10
2008,06,02,02,56,11.10
2008,06,02,02,57,11.10
2008,06,02,02,58,11.20
2008,06,02,02,59,11.20
2008,06,02,03,00,11.20
2008,06,02,03,01,11.20
2008,06,02,03,02,11.20
2008,06,02,03,03,11.20
2008,06,02,03,04,11.20
2008,06,02,03,05,11.30
2008,06,02,03,06,11.30
2008,06,02,03,07,11.30
2008,06,02,03,08,11.30
2008,06,02,03,09,11.30
2008,06,02,03,10,11.30
2008,06,02,03,11,11.30
2008,06,02,03,12,11.30
2008,06,02,03,13,11.30
2008,06,02,03,14,11.30
2008,06,02,03,15,11.30
2008,06,02,03,16,11.30
2008,06,02,03,17,11.30
2008,06,02,03,18,11.30
2008,06,02,03,19,11.30
2008,06,02,03,20,11.30
2008,06,02,03,21,11.40
2008,06,02,03,22,11.40
2008,06,02,03,23,11.40
2008,06,02,03,24,11.40
2008,06,02,03,25,11.40
2008,06,02,03,26,11.40
2008,06,02,03,27,11.40
2008,06,02,03,28,11.40
2008,06,02,03,29,11.40
2008,06,02,03,30,11.40
2008,06,02,03,31,11.40
2008,06,02,03,32,11.40
2008,06,02,03,33,11.40
2008,06,02,03,34,11.30
2008,06,02,03,35,11.30
2008,06,02,03,36,11.30
2008,06,02,03,37,11.30
2008,06,02,03,38,11.20
2008,06,02,03,39,11.20
2008,06,02,03,40,11.20
2008,06,02,03,41,11.20
2008,06,02,03,42,11.10
2008,06,02,03,43,11.10
2008,06,02,03,44,11.10
2008,06,02,03,45,11.10
2008,06,02,03,46,11.10
2008,06,02,03,47,11.00
2008,06,02,03,48,11.00
2008,06,02,03,49,11.00
2008,06,02,03,50,11.00
2008,06,02,03,51,10.90
2008,06,02,03,52,10.90
2008,06,02,03,53,10.90
2008,06,02,03,54,10.90
2008,06,02,03,55,10.90
2008,06,02,03,56,10.90
2008,06,02,03,57,10.90
2008,06,02,03,58,10.90
2008,06,02,03,59,10.90
2008,06,02,04,00,10.90
2008,06,02,04,01,10.90
2008,06,02,04,02,10.90
2008,06,02,04,03,10.90
2008,06,02,04,04,10.90
2008,06,02,04,05,10.90
2008,06,02,04,06,10.80
2008,06,02,04,07,10.80
2008,06,02,04,08,10.80
2008,06,02,04,09,10.80
2008,06,02,04,10,10.80
2008,06,02,04,11,10.80
2008,06,02,04,12,10.80
2008,06,02,04,13,10.80
2008,06,02,04,14,10.80
2008,06,02,04,15,10.80
2008,06,02,04,16,10.70
2008,06,02,04,17,10.70
2008,06,02,04,18,10.70
2008,06,02,04,19,10.70
2008,06,02,04,20,10.70
2008,06,02,04,21,10.60
2008,06,02,04,22,10.60
2008,06,02,04,23,10.60
2008,06,02,04,24,10.60
2008,06,02,04,25,10.60
2008,06,02,04,26,10.60
2008,06,02,04,27,10.60
2008,06,02,04,28,10.50
2008,06,02,04,29,10.50
2008,06,02,04,30,10.50
2008,06,02,04,31,10.50
2008,06,02,04,32,10.50
2008,06,02,04,33,10.50
2008,06,02,04,34,10.40
2008,06,02,04,35,10.40
2008,06,02,04,36,10.40
2008,06,02,04,37,10.40
2008,06,02,04,38,10.40
2008,06,02,04,39,10.40
2008,06,02,04,40,10.40
2008,06,02,04,41,10.40
2008,06,02,04,42,10.40
2008,06,02,04,43,10.40
2008,06,02,04,44,10.40
2008,06,02,04,45,10.40
2008,06,02,04,46,10.40
2008,06,02,04,47,10.40
2008,06,02,04,48,10.40
2008,06,02,04,49,10.40
2008,06,02,04,50,10.40
2008,06,02,04,51,10.40
2008,06,02,04,52,10.40
2008,06,02,04,53,10.30
2008,06,02,04,54,10.30
2008,06,02,04,55,10.30
2008,06,02,04,56,10.30
2008,06,02,04,57,10.30
2008,06,02,04,58,10.30
2008,06,02,04,59,10.30
2008,06,02,05,00,10.30
2008,06,02,05,01,10.30
2008,06,02,05,02,10.30
2008,06,02,05,03,10.30
2008,06,02,05,04,10.30
2008,06,02,05,05,10.30
2008,06,02,05,06,10.30
2008,06,02,05,07,10.40
2008,06,02,05,08,10.40
2008,06,02,05,09,10.40
2008,06,02,05,10,10.40
2008,06,02,05,11,10.50
2008,06,02,05,12,10.50
2008,06,02,05,13,10.60
2008,06,02,05,14,10.60
2008,06,02,05,15,10.70
2008,06,02,05,16,10.70
2008,06,02,05,17,10.70
2008,06,02,05,18,10.70
2008,06,02,05,19,10.80
2008,06,02,05,20,10.80
2008,06,02,05,21,10.80
2008,06,02,05,22,10.80
2008,06,02,05,23,10.80
2008,06,02,05,24,10.80
2008,06,02,05,25,10.70
2008,06,02,05,26,10.70
2008,06,02,05,27,10.70
2008,06,02,05,28,10.60
2008,06,02,05,29,10.60
2008,06,02,05,30,10.60
2008,06,02,05,31,10.60
2008,06,02,05,32,10.60
2008,06,02,05,33,10.50
2008,06,02,05,34,10.50
2008,06,02,05,35,10.50
2008,06,02,05,36,10.40
2008,06,02,05,37,10.40
2008,06,02,05,38,10.40
2008,06,02,05,39,10.30
2008,06,02,05,40,10.30
2008,06,02,05,41,10.30
2008,06,02,05,42,10.30
2008,06,02,05,43,10.30
2008,06,02,05,44,10.30
2008,06,02,05,45,10.30
2008,06,02,05,46,10.20
2008,06,02,05,47,10.20
2008,06,02,05,48,10.20
2008,06,02,05,49,10.20
2008,06,02,05,50,10.20
2008,06,02,05,51,10.20
2008,06,02,05,52,10.20
2008,06,02,05,53,10.20
2008,06,02,05,54,10.10
2008,06,02,05,55,10.10
2008,06,02,05,56,10.10
2008,06,02,05,57,10.10
2008,06,02,05,58,10.10
2008,06,02,05,59,10.10
2008,06,02,06,00,10.10
2008,06,02,06,01,10.10
2008,06,02,06,02,10.10
2008,06,02,06,03,10.10
2008,06,02,06,04,10.10
2008,06,02,06,05,10.10
2008,06,02,06,06,10.10
2008,06,02,06,07,10.10
2008,06,02,06,08,10.10
2008,06,02,06,09,10.10
2008,06,02,06,10,10.10
2008,06,02,06,11,10.10
2008,06,02,06,12,10.20
2008,06,02,06,13,10.20
2008,06,02,06,14,10.20
2008,06,02,06,15,10.20
2008,06,02,06,16,10.20
2008,06,02,06,17,10.20
2008,06,02,06,18,10.30
2008,06,02,06,19,10.30
2008,06,02,06,20,10.30
2008,06,02,06,21,10.30
2008,06,02,06,22,10.40
2008,06,02,06,23,10.40
2008,06,02,06,24,10.40
2008,06,02,06,25,10.40
2008,06,02,06,26,10.40
2008,06,02,06,27,10.40
2008,06,02,06,28,10.50
2008,06,02,06,29,10.50
2008,06,02,06,30,10.50
2008,06,02,06,31,10.60
2008,06,02,06,32,10.60
2008,06,02,06,33,10.60
2008,06,02,06,34,10.60
2008,06,02,06,35,10.70
2008,06,02,06,36,10.70
2008,06,02,06,37,10.70
2008,06,02,06,38,10.70
2008,06,02,06,39,10.70
2008,06,02,06,40,10.70
2008,06,02,06,41,10.80
2008,06,02,06,42,10.80
2008,06,02,06,43,10.80
2008,06,02,06,44,10.80
2008,06,02,06,45,10.80
2008,06,02,06,46,10.80
2008,06,02,06,47,10.80
2008,06,02,06,48,10.90
2008,06,02,06,49,10.90
2008,06,02,06,50,10.90
2008,06,02,06,51,10.90
2008,06,02,06,52,10.90
2008,06,02,06,53,10.90
2008,06,02,06,54,10.90
2008,06,02,06,55,10.90
2008,06,02,06,56,10.90
2008,06,02,06,57,10.90
2008,06,02,06,58,11.00
2008,06,02,06,59,11.00
2008,06,02,07,00,11.00
2008,06,02,07,01,11.00
2008,06,02,07,02,11.00
2008,06,02,07,03,10.90
2008,06,02,07,04,11.00
2008,06,02,07,05,11.00
2008,06,02,07,06,11.00
2008,06,02,07,07,11.00
2008,06,02,07,08,11.00
2008,06,02,07,09,11.00
2008,06,02,07,10,11.00
2008,06,02,07,11,11.10
2008,06,02,07,12,11.10
2008,06,02,07,13,11.10
2008,06,02,07,14,11.10
2008,06,02,07,15,11.10
2008,06,02,07,16,11.10
2008,06,02,07,17,11.10
2008,06,02,07,18,11.10
2008,06,02,07,19,11.10
2008,06,02,07,20,11.10
2008,06,02,07,21,11.10
2008,06,02,07,22,11.10
2008,06,02,07,23,11.10
2008,06,02,07,24,11.10
2008,06,02,07,25,11.10
2008,06,02,07,26,11.20
2008,06,02,07,27,11.20
2008,06,02,07,28,11.20
2008,06,02,07,29,11.20
2008,06,02,07,30,11.20
2008,06,02,07,31,11.30
2008,06,02,07,32,11.30
2008,06,02,07,33,11.30
2008,06,02,07,34,11.30
2008,06,02,07,35,11.40
2008,06,02,07,36,11.40
2008,06,02,07,37,11.40
2008,06,02,07,38,11.40
2008,06,02,07,39,11.40
2008,06,02,07,40,11.40
2008,06,02,07,41,11.40
2008,06,02,07,42,11.40
2008,06,02,07,43,11.40
2008,06,02,07,44,11.40
2008,06,02,07,45,11.40
2008,06,02,07,46,11.40
2008,06,02,07,47,11.40
2008,06,02,07,48,11.40
2008,06,02,07,49,11.50
2008,06,02,07,50,11.50
2008,06,02,07,51,11.50
2008,06,02,07,52,11.50
2008,06,02,07,53,11.60
2008,06,02,07,54,11.60
2008,06,02,07,55,11.60
2008,06,02,07,56,11.60
2008,06,02,07,57,11.60
2008,06,02,07,58,11.70
2008,06,02,07,59,11.70
2008,06,02,08,00,11.70
2008,06,02,08,01,11.70
2008,06,02,08,02,11.70
2008,06,02,08,03,11.70
2008,06,02,08,04,11.70
2008,06,02,08,05,11.80
2008,06,02,08,06,11.80
2008,06,02,08,07,11.80
2008,06,02,08,08,11.70
2008,06,02,08,09,11.70
2008,06,02,08,10,11.70
2008,06,02,08,11,11.70
2008,06,02,08,12,11.80
2008,06,02,08,13,11.80
2008,06,02,08,14,11.70
2008,06,02,08,15,11.70
2008,06,02,08,16,11.70
2008,06,02,08,17,11.70
2008,06,02,08,18,11.70
2008,06,02,08,19,11.70
2008,06,02,08,20,11.80
2008,06,02,08,21,11.80
2008,06,02,08,22,11.80
2008,06,02,08,23,11.80
2008,06,02,08,24,11.70
2008,06,02,08,25,11.70
2008,06,02,08,26,11.80
2008,06,02,08,27,11.80
2008,06,02,08,28,11.80
2008,06,02,08,29,11.90
2008,06,02,08,30,11.80
2008,06,02,08,31,11.80
2008,06,02,08,32,11.80
2008,06,02,08,33,11.90
2008,06,02,08,34,11.90
2008,06,02,08,35,11.90
2008,06,02,08,36,11.90
2008,06,02,08,37,12.00
2008,06,02,08,38,12.00
2008,06,02,08,39,12.00
2008,06,02,08,40,12.00
2008,06,02,08,41,12.00
2008,06,02,08,42,12.00
2008,06,02,08,43,12.10
2008,06,02,08,44,12.00
2008,06,02,08,45,12.10
2008,06,02,08,46,12.10
2008,06,02,08,47,12.10
2008,06,02,08,48,12.10
2008,06,02,08,49,12.20
2008,06,02,08,50,12.30
2008,06,02,08,51,12.40
2008,06,02,08,52,12.40
2008,06,02,08,53,12.50
2008,06,02,08,54,12.60
2008,06,02,08,55,12.60
2008,06,02,08,56,12.60
2008,06,02,08,57,12.70
2008,06,02,08,58,12.70
2008,06,02,08,59,12.80
2008,06,02,09,00,12.80
2008,06,02,09,01,12.90
2008,06,02,09,02,13.00
2008,06,02,09,03,13.10
2008,06,02,09,04,13.10
2008,06,02,09,05,13.10
2008,06,02,09,06,13.10
2008,06,02,09,07,13.10
2008,06,02,09,08,13.10
2008,06,02,09,09,13.10
2008,06,02,09,10,13.10
2008,06,02,09,11,13.10
2008,06,02,09,12,13.10
2008,06,02,09,13,13.10
2008,06,02,09,14,13.20
2008,06,02,09,15,13.20
2008,06,02,09,16,13.10
2008,06,02,09,17,13.10
2008,06,02,09,18,13.00
2008,06,02,09,19,13.00
2008,06,02,09,20,13.10
2008,06,02,09,21,13.20
2008,06,02,09,22,13.20
2008,06,02,09,23,13.10
2008,06,02,09,24,13.10
2008,06,02,09,25,13.10
2008,06,02,09,26,13.10
2008,06,02,09,27,13.10
2008,06,02,09,28,13.10
2008,06,02,09,29,13.20
2008,06,02,09,30,13.20
2008,06,02,09,31,13.20
2008,06,02,09,32,13.20
2008,06,02,09,33,13.20
2008,06,02,09,34,13.20
2008,06,02,09,35,13.30
2008,06,02,09,36,13.30
2008,06,02,09,37,13.30
2008,06,02,09,38,13.20
2008,06,02,09,39,13.20
2008,06,02,09,40,13.10
2008,06,02,09,41,13.10
2008,06,02,09,42,13.10
2008,06,02,09,43,13.20
2008,06,02,09,44,13.30
2008,06,02,09,45,13.50
2008,06,02,09,46,13.60
2008,06,02,09,47,13.70
2008,06,02,09,48,13.80
2008,06,02,09,49,13.80
2008,06,02,09,50,13.90
2008,06,02,09,51,14.00
2008,06,02,09,52,14.10
2008,06,02,09,53,14.20
2008,06,02,09,54,14.30
2008,06,02,09,55,14.40
2008,06,02,09,56,14.40
2008,06,02,09,57,14.40
2008,06,02,09,58,14.40
2008,06,02,09,59,14.40
2008,06,02,10,00,14.30
2008,06,02,10,01,14.20
2008,06,02,10,02,14.10
2008,06,02,10,03,14.10
2008,06,02,10,04,14.10
2008,06,02,10,05,14.10
2008,06,02,10,06,14.00
2008,06,02,10,07,14.00
2008,06,02,10,08,13.90
2008,06,02,10,09,14.00
2008,06,02,10,10,14.10
2008,06,02,10,11,14.20
2008,06,02,10,12,14.30
2008,06,02,10,13,14.40
2008,06,02,10,14,14.40
2008,06,02,10,15,14.40
2008,06,02,10,16,14.40
2008,06,02,10,17,14.50
2008,06,02,10,18,14.60
2008,06,02,10,19,14.70
2008,06,02,10,20,14.60
2008,06,02,10,21,14.60
2008,06,02,10,22,14.50
2008,06,02,10,23,14.60
2008,06,02,10,24,14.60
2008,06,02,10,25,14.60
2008,06,02,10,26,14.60
2008,06,02,10,27,14.50
2008,06,02,10,28,14.50
2008,06,02,10,29,14.50
2008,06,02,10,30,14.50
2008,06,02,10,31,14.40
2008,06,02,10,32,14.40
2008,06,02,10,33,14.40
2008,06,02,10,34,14.40
2008,06,02,10,35,14.50
2008,06,02,10,36,14.60
2008,06,02,10,37,14.70
2008,06,02,10,38,14.80
2008,06,02,10,39,14.90
2008,06,02,10,40,14.90
2008,06,02,10,41,14.90
2008,06,02,10,42,14.80
2008,06,02,10,43,14.80
2008,06,02,10,44,14.80
2008,06,02,10,45,14.80
2008,06,02,10,46,14.80
2008,06,02,10,47,14.90
2008,06,02,10,48,15.00
2008,06,02,10,49,15.00
2008,06,02,10,50,15.00
2008,06,02,10,51,14.90
2008,06,02,10,52,14.80
2008,06,02,10,53,14.80
2008,06,02,10,54,14.80
2008,06,02,10,55,14.70
2008,06,02,10,56,14.70
2008,06,02,10,57,14.70
2008,06,02,10,58,14.80
2008,06,02,10,59,14.90
2008,06,02,11,00,15.00
2008,06,02,11,01,15.20
2008,06,02,11,02,15.30
2008,06,02,11,03,15.40
2008,06,02,11,04,15.40
2008,06,02,11,05,15.50
2008,06,02,11,06,15.60
2008,06,02,11,07,15.70
2008,06,02,11,08,15.80
2008,06,02,11,09,15.90
2008,06,02,11,10,15.90
2008,06,02,11,11,15.90
2008,06,02,11,12,15.90
2008,06,02,11,13,16.00
2008,06,02,11,14,16.10
2008,06,02,11,15,16.10
2008,06,02,11,16,16.10
2008,06,02,11,17,16.00
2008,06,02,11,18,15.90
2008,06,02,11,19,15.80
2008,06,02,11,20,15.70
2008,06,02,11,21,15.70
2008,06,02,11,22,15.60
2008,06,02,11,23,15.70
2008,06,02,11,24,15.70
2008,06,02,11,25,15.80
2008,06,02,11,26,15.90
2008,06,02,11,27,15.90
2008,06,02,11,28,15.90
2008,06,02,11,29,15.80
2008,06,02,11,30,15.80
2008,06,02,11,31,15.80
2008,06,02,11,32,15.90
2008,06,02,11,33,15.90
2008,06,02,11,34,16.10
2008,06,02,11,35,16.00
2008,06,02,11,36,16.00
2008,06,02,11,37,15.90
2008,06,02,11,38,15.80
2008,06,02,11,39,15.80
2008,06,02,11,40,15.80
2008,06,02,11,41,15.70
2008,06,02,11,42,15.80
2008,06,02,11,43,15.90
2008,06,02,11,44,15.80
2008,06,02,11,45,15.80
2008,06,02,11,46,15.70
2008,06,02,11,47,15.70
2008,06,02,11,48,15.60
2008,06,02,11,49,15.50
2008,06,02,11,50,15.40
2008,06,02,11,51,15.30
2008,06,02,11,52,15.10
2008,06,02,11,53,15.00
2008,06,02,11,54,14.90
2008,06,02,11,55,14.60
2008,06,02,11,56,14.60
2008,06,02,11,57,14.60
2008,06,02,11,58,14.60
2008,06,02,11,59,14.70
2008,06,02,12,00,14.80
2008,06,02,12,01,14.90
2008,06,02,12,02,15.00
2008,06,02,12,03,15.00
2008,06,02,12,04,15.10
2008,06,02,12,05,15.20
2008,06,02,12,06,15.10
2008,06,02,12,07,15.20
2008,06,02,12,08,15.30
2008,06,02,12,09,15.40
2008,06,02,12,10,15.40
2008,06,02,12,11,15.50
2008,06,02,12,12,15.60
2008,06,02,12,13,15.80
2008,06,02,12,14,15.90
2008,06,02,12,15,16.10
2008,06,02,12,16,16.20
2008,06,02,12,17,16.10
2008,06,02,12,18,16.10
2008,06,02,12,19,16.10
2008,06,02,12,20,16.10
2008,06,02,12,21,16.20
2008,06,02,12,22,16.30
2008,06,02,12,23,16.20
2008,06,02,12,24,15.90
2008,06,02,12,25,15.80
2008,06,02,12,26,15.80
2008,06,02,12,27,15.90
2008,06,02,12,28,15.90
2008,06,02,12,29,15.90
2008,06,02,12,30,15.90
2008,06,02,12,31,15.80
2008,06,02,12,32,15.70
2008,06,02,12,33,15.60
2008,06,02,12,34,15.60
2008,06,02,12,35,15.70
2008,06,02,12,36,15.60
2008,06,02,12,37,15.60
2008,06,02,12,38,15.70
2008,06,02,12,39,15.80
2008,06,02,12,40,15.90
2008,06,02,12,41,16.00
2008,06,02,12,42,16.00
2008,06,02,12,43,15.90
2008,06,02,12,44,15.90
2008,06,02,12,45,15.90
2008,06,02,12,46,15.80
2008,06,02,12,47,15.80
2008,06,02,12,48,15.70
2008,06,02,12,49,15.70
2008,06,02,12,50,15.70
2008,06,02,12,51,15.80
2008,06,02,12,52,15.80
2008,06,02,12,53,15.70
2008,06,02,12,54,15.60
2008,06,02,12,55,15.40
2008,06,02,12,56,15.30
2008,06,02,12,57,15.40
2008,06,02,12,58,15.50
2008,06,02,12,59,15.60
2008,06,02,13,00,15.70
2008,06,02,13,01,15.80
2008,06,02,13,02,15.90
2008,06,02,13,03,16.00
2008,06,02,13,04,16.00
2008,06,02,13,05,16.00
2008,06,02,13,06,15.80
2008,06,02,13,07,15.60
2008,06,02,13,08,15.60
2008,06,02,13,09,15.50
2008,06,02,13,10,15.50
2008,06,02,13,11,15.40
2008,06,02,13,12,15.40
2008,06,02,13,13,15.50
2008,06,02,13,14,15.50
2008,06,02,13,15,15.50
2008,06,02,13,16,15.50
2008,06,02,13,17,15.30
2008,06,02,13,18,15.30
2008,06,02,13,19,15.30
2008,06,02,13,20,15.30
2008,06,02,13,21,15.40
2008,06,02,13,22,15.50
2008,06,02,13,23,15.70
2008,06,02,13,24,15.80
2008,06,02,13,25,15.90
2008,06,02,13,26,15.90
2008,06,02,13,27,15.90
2008,06,02,13,28,15.80
2008,06,02,13,29,15.70
2008,06,02,13,30,15.60
2008,06,02,13,31,15.50
2008,06,02,13,32,15.30
2008,06,02,13,33,15.20
2008,06,02,13,34,15.20
2008,06,02,13,35,15.20
2008,06,02,13,36,15.20
2008,06,02,13,37,15.20
2008,06,02,13,38,15.20
2008,06,02,13,39,15.00
2008,06,02,13,40,15.00
2008,06,02,13,41,15.00
2008,06,02,13,42,15.10
2008,06,02,13,43,15.20
2008,06,02,13,44,15.30
2008,06,02,13,45,15.30
2008,06,02,13,46,15.40
2008,06,02,13,47,15.50
2008,06,02,13,48,15.50
2008,06,02,13,49,15.60
2008,06,02,13,50,15.50
2008,06,02,13,51,15.40
2008,06,02,13,52,15.30
2008,06,02,13,53,15.20
2008,06,02,13,54,15.00
2008,06,02,13,55,15.00
2008,06,02,13,56,15.00
2008,06,02,13,57,15.00
2008,06,02,13,58,15.00
2008,06,02,13,59,14.80
2008,06,02,14,00,14.70
2008,06,02,14,01,14.70
2008,06,02,14,02,14.80
2008,06,02,14,03,14.80
2008,06,02,14,04,14.70
2008,06,02,14,05,14.70
2008,06,02,14,06,14.70
2008,06,02,14,07,14.70
2008,06,02,14,08,14.60
2008,06,02,14,09,14.40
2008,06,02,14,10,14.30
2008,06,02,14,11,14.30
2008,06,02,14,12,14.30
2008,06,02,14,13,14.30
2008,06,02,14,14,14.20
2008,06,02,14,15,14.30
2008,06,02,14,16,14.30
2008,06,02,14,17,14.20
2008,06,02,14,18,14.20
2008,06,02,14,19,14.20
2008,06,02,14,20,14.30
2008,06,02,14,21,14.40
2008,06,02,14,22,14.50
2008,06,02,14,23,14.60
2008,06,02,14,24,14.50
2008,06,02,14,25,14.40
2008,06,02,14,26,14.30
2008,06,02,14,27,14.30
2008,06,02,14,28,14.30
2008,06,02,14,29,14.20
2008,06,02,14,30,14.20
2008,06,02,14,31,14.20
2008,06,02,14,32,14.40
2008,06,02,14,33,14.50
2008,06,02,14,34,14.60
2008,06,02,14,35,14.60
2008,06,02,14,36,14.70
2008,06,02,14,37,14.70
2008,06,02,14,38,14.80
2008,06,02,14,39,14.80
2008,06,02,14,40,14.70
2008,06,02,14,41,14.70
2008,06,02,14,42,14.70
2008,06,02,14,43,14.70
2008,06,02,14,44,14.70
2008,06,02,14,45,14.70
2008,06,02,14,46,14.70
2008,06,02,14,47,14.70
2008,06,02,14,48,14.70
2008,06,02,14,49,14.80
2008,06,02,14,50,14.80
2008,06,02,14,51,14.80
2008,06,02,14,52,14.80
2008,06,02,14,53,14.80
2008,06,02,14,54,14.60
2008,06,02,14,55,14.60
2008,06,02,14,56,14.50
2008,06,02,14,57,14.50
2008,06,02,14,58,14.50
2008,06,02,14,59,14.50
2008,06,02,15,00,14.60
2008,06,02,15,01,14.70
2008,06,02,15,02,14.80
2008,06,02,15,03,14.80
2008,06,02,15,04,14.80
2008,06,02,15,05,14.80
2008,06,02,15,06,14.80
2008,06,02,15,07,14.80
2008,06,02,15,08,14.80
2008,06,02,15,09,14.80
2008,06,02,15,10,15.00
2008,06,02,15,11,15.00
2008,06,02,15,12,15.00
2008,06,02,15,13,15.00
2008,06,02,15,14,15.00
2008,06,02,15,15,15.00
2008,06,02,15,16,15.00
2008,06,02,15,17,15.00
2008,06,02,15,18,15.00
2008,06,02,15,19,15.00
2008,06,02,15,20,15.00
2008,06,02,15,21,15.00
2008,06,02,15,22,15.20
2008,06,02,15,23,15.30
2008,06,02,15,24,15.30
2008,06,02,15,25,15.30
2008,06,02,15,26,15.40
2008,06,02,15,27,15.50
2008,06,02,15,28,15.60
2008,06,02,15,29,15.60
2008,06,02,15,30,15.60
2008,06,02,15,31,15.70
2008,06,02,15,32,15.60
2008,06,02,15,33,15.50
2008,06,02,15,34,15.40
2008,06,02,15,35,15.40
2008,06,02,15,36,15.40
2008,06,02,15,37,15.40
2008,06,02,15,38,15.40
2008,06,02,15,39,15.50
2008,06,02,15,40,15.60
2008,06,02,15,41,15.70
2008,06,02,15,42,15.80
2008,06,02,15,43,15.80
2008,06,02,15,44,15.90
2008,06,02,15,45,16.00
2008,06,02,15,46,16.00
2008,06,02,15,47,15.90
2008,06,02,15,48,15.80
2008,06,02,15,49,15.80
2008,06,02,15,50,15.90
2008,06,02,15,51,15.90
2008,06,02,15,52,15.80
2008,06,02,15,53,15.70
2008,06,02,15,54,15.80
2008,06,02,15,55,15.80
2008,06,02,15,56,15.80
2008,06,02,15,57,15.80
2008,06,02,15,58,15.80
2008,06,02,15,59,15.90
2008,06,02,16,00,15.80
2008,06,02,16,01,15.70
2008,06,02,16,02,15.60
2008,06,02,16,03,15.50
2008,06,02,16,04,15.50
2008,06,02,16,05,15.60
2008,06,02,16,06,15.50
2008,06,02,16,07,15.40
2008,06,02,16,08,15.30
2008,06,02,16,09,15.10
2008,06,02,16,10,15.00
2008,06,02,16,11,15.00
2008,06,02,16,12,15.00
2008,06,02,16,13,15.00
2008,06,02,16,14,15.00
2008,06,02,16,15,15.00
2008,06,02,16,16,15.00
2008,06,02,16,17,15.00
2008,06,02,16,18,15.00
2008,06,02,16,19,15.00
2008,06,02,16,20,15.00
2008,06,02,16,21,15.00
2008,06,02,16,22,15.00
2008,06,02,16,23,15.00
2008,06,02,16,24,15.00
2008,06,02,16,25,15.00
2008,06,02,16,26,15.00
2008,06,02,16,27,15.10
2008,06,02,16,28,15.20
2008,06,02,16,29,15.20
2008,06,02,16,30,15.20
2008,06,02,16,31,15.10
2008,06,02,16,32,15.10
2008,06,02,16,33,15.00
2008,06,02,16,34,15.00
2008,06,02,16,35,15.00
2008,06,02,16,36,15.00
2008,06,02,16,37,15.00
2008,06,02,16,38,15.00
2008,06,02,16,39,14.90
2008,06,02,16,40,14.90
2008,06,02,16,41,14.80
2008,06,02,16,42,14.80
2008,06,02,16,43,14.70
2008,06,02,16,44,14.60
2008,06,02,16,45,14.60
2008,06,02,16,46,14.50
2008,06,02,16,47,14.50
2008,06,02,16,48,14.40
2008,06,02,16,49,14.40
2008,06,02,16,50,14.30
2008,06,02,16,51,14.30
2008,06,02,16,52,14.30
2008,06,02,16,53,14.30
2008,06,02,16,54,14.30
2008,06,02,16,55,14.30
2008,06,02,16,56,14.30
2008,06,02,16,57,14.40
2008,06,02,16,58,14.40
2008,06,02,16,59,14.50
2008,06,02,17,00,14.50
2008,06,02,17,01,14.60
2008,06,02,17,02,14.60
2008,06,02,17,03,14.60
2008,06,02,17,04,14.70
2008,06,02,17,05,14.70
2008,06,02,17,06,14.70
2008,06,02,17,07,14.60
2008,06,02,17,08,14.60
2008,06,02,17,09,14.60
2008,06,02,17,10,14.60
2008,06,02,17,11,14.60
2008,06,02,17,12,14.60
2008,06,02,17,13,14.60
2008,06,02,17,14,14.50
2008,06,02,17,15,14.50
2008,06,02,17,16,14.40
2008,06,02,17,17,14.30
2008,06,02,17,18,14.20
2008,06,02,17,19,14.10